Torna al catalogo

FIREFLY-2

AttivoScienzaSSO
NORAD 62704·PAYLOAD·🇮🇳 India

Lanciato Jan 14, 2025 da Vandenberg Space Force Base

Loading…

Prossimi Passaggi (prossime 24 ore)

TLE

AggiornatoSource: Space-Track

Epoca: Sep 14, 2026, 15:01 UTC

1 62704U 25009CZ  26257.62579815  .00000961  00000-0  98475-4 0  9993
2 62704  97.6961 333.6066 0007812 131.6247 228.5643 14.92702334 90664

Traccia FIREFLY-2 in tempo reale con AllMySat

Download on the App Store